Location: Unspecified
(0.0000°N, 0.0000°E)
Time: 15:38:04
(UTC+00:00)

STARLINK-36711 - Pass Details

Date: 04 March 2026
Orbit: 272 x 273 km, 53.2° (Epoch: 6 March)

Event Time Altitude Azimuth Distance (km) Brightness Sun altitude
Rises 19:03:01 0° 219° (SW) 1,844 6.1 -12.8°
Reaches altitude 10° 19:04:54 10° 224° (SW) 1,043 4.8 -13.2°
Maximum altitude 19:07:10 56° 304° (NW) 315 1.7 -13.8°
Enters shadow 19:08:28 21° 17° (NNE) 657 2.8 -14.1°
